[[{"header":{"parameterUnit":"m.s-1","parameterCategory":1,"la1":30.2991,"la2":30.254,"lo1":-89.0895,"lo2":-89.0444,"dy":0.0017,"dx":0.0017,"nx":28,"ny":28,"refTime":"2025-08-13T03:00:00:Z","depth":0,"parameterNumber":2,"parameterNumberName":"U-component_of_WINDS"},"data":[0,0,0,0,0,0,0,0,0,0,0,0,0,0,0,0,0,0,0,0,0,0,0,0,0,0,0,0,0,0,0,0,0,0,0,0,0,0,0,0,0,0,0,0,0,0,0,0,0,0,0,0,0,0,0,0,0,0,4.6139,4.614,0,4.6222,4.6223,4.6224,4.6115,4.6111,4.6107,4.6103,4.6182,4.6187,4.6193,0,0,0,0,0,0,0,0,0,0,0,0,0,4.5878,4.5883,4.6139,4.614,4.6141,4.6222,4.6223,4.6224,4.6115,4.611,4.6106,4.6101,4.618,4.6187,4.6194,0,0,0,0,0,0,0,0,0,0,0,0,0,4.5979,4.5885,4.6138,4.6096,4.6093,4.6222,4.6223,4.6225,4.6116,4.611,4.6104,4.6099,4.6178,4.6186,4.6195,4.6366,0,0,4.6221,4.6225,0,0,0,0,0,0,0,0,4.5973,4.5989,4.6101,4.6099,4.6096,4.6152,4.616,4.6272,4.6118,4.6107,4.6103,4.6096,4.6176,4.6185,4.6213,4.637,4.6374,4.6222,4.6227,4.6231,4.6233,0,0,0,0,0,0,0,4.5967,4.5984,4.6171,4.6103,4.61,4.6071,4.6079,4.6181,4.6174,4.6108,4.61,4.6112,4.6174,4.6205,4.6214,4.6375,4.6222,4.6229,4.6235,4.6238,4.6675,4.6681,0,0,0,0,0,0,4.5965,4.5979,4.6169,4.6174,4.6019,4.608,4.6089,4.614,4.6172,4.6172,4.6117,4.6106,4.6193,4.6204,4.6216,4.6418,4.6231,4.6239,4.6244,4.6669,4.6676,4.6683,0,0,0,0,0,0,4.596,4.5983,4.6165,4.6075,4.6096,4.6091,4.6149,4.6145,4.6176,4.6179,4.6177,4.6151,4.6189,4.6204,4.633,4.6419,4.6243,4.6251,4.6661,4.6671,4.668,4.6824,0,0,0,0,0,0,4.5953,4.5982,4.6049,4.6077,4.6101,4.628,4.6155,4.6151,4.6192,4.6179,4.621,4.621,4.6185,4.6318,4.6339,4.6428,4.6257,4.6653,4.6665,4.6677,4.6811,4.6837,4.6859,0,0,0,0,0,4.5944,4.6085,4.6053,4.6076,4.6185,4.6285,4.6299,4.627,4.62,4.6265,4.6268,4.6209,4.6407,4.6332,4.6354,4.6447,4.6647,4.6662,4.6676,4.68,4.6832,4.6859,0,0,0,0,0,0,4.6065,4.6088,4.6052,4.6207,4.6246,4.6267,4.6349,4.6305,4.6362,4.6347,4.6307,4.6315,4.6449,4.6461,4.6377,4.6615,4.6515,4.6535,4.6601,4.6632,4.6656,4.6648,4.6265,0,0,0,0,0,4.611,4.6192,4.6207,4.6341,4.6363,4.6353,4.6396,4.6371,4.6408,4.6423,4.6434,4.647,4.654,4.6587,4.6652,4.6813,4.6817,4.6888,4.6913,4.6932,4.6949,4.7033,4.7064,4.6731,4.6731,4.673,0,0,4.6202,4.6225,4.6279,4.6366,4.6393,4.6476,4.6367,4.646,4.6521,4.6436,4.6555,4.6565,4.6603,4.6747,4.6811,4.6761,4.7042,4.6951,4.6967,4.6972,4.7051,4.7082,4.711,4.674,4.6739,4.6737,0,0,4.6413,4.6441,4.6555,4.6584,4.6627,4.662,4.6648,4.6677,4.668,4.68,4.6738,4.6809,4.6931,4.696,4.6991,4.7215,4.7162,4.7238,4.7363,4.7445,4.7471,4.7494,4.7571,4.76,4.7255,4.7255,4.7255,0,4.6522,4.6648,4.6618,4.6716,4.6755,4.6686,4.6799,4.6829,4.689,4.6918,4.6862,4.7014,4.7035,4.7183,4.7238,4.7266,4.7294,4.7232,4.747,4.7493,4.7514,4.7587,4.7616,4.7264,4.7263,4.7262,4.7261,0,4.6778,4.6866,4.6953,4.7016,4.7065,4.7171,4.7155,4.7208,4.718,4.7178,4.73,4.7323,4.7391,4.7425,4.7397,4.757,4.7537,4.7477,4.7375,4.7555,4.7623,4.7651,4.7276,4.7273,4.727,4.7268,0,0,4.7064,4.7111,4.7143,4.7171,4.7214,4.728,4.7382,4.745,4.7495,4.7541,4.7623,4.7729,4.7674,4.7709,4.7684,4.7757,4.7929,4.7687,4.7687,4.7729,4.8118,4.8161,4.8194,4.7896,4.7902,4.7906,4.8114,0,4.7273,4.7451,4.7428,4.7598,4.7677,4.7613,4.7701,4.7736,4.7738,4.7803,4.7804,4.7879,4.7802,4.7822,4.7892,4.7894,4.8006,4.7879,4.7969,4.7973,4.7958,4.823,4.8275,4.847,4.814,4.8145,4.8148,0,4.754,4.7597,4.7775,4.7805,4.7838,4.7918,4.7978,4.8044,4.8081,4.8077,4.8117,4.8079,4.8179,4.8079,4.8214,4.8128,4.8163,4.817,4.8177,4.8181,4.8069,4.8238,4.8532,4.856,4.819,4.8187,4.8184,0,4.7727,4.7848,4.797,4.7996,4.8035,4.8093,4.8111,4.8143,4.8186,4.8239,4.8265,4.8329,4.8362,4.8411,4.839,4.832,4.8529,4.8427,4.8525,4.8526,4.8569,4.8566,4.8869,4.8598,4.8598,4.8597,4.8597,0,4.796,4.8071,4.8055,4.8129,4.8251,4.8224,4.8344,4.8354,4.8384,4.8457,4.8406,4.8476,4.8446,4.8513,4.8498,4.8611,4.8627,4.8624,4.8618,4.8627,4.8627,4.8647,4.8632,4.8605,4.8603,4.8602,4.86,0,4.8188,4.8182,4.831,4.8338,4.8348,4.8436,4.8458,4.8527,4.8526,4.862,4.864,4.8637,4.8713,4.8699,4.8783,4.8772,4.8913,4.8892,4.8901,4.8894,4.8992,4.8982,4.9316,4.9358,4.9063,4.9066,4.9068,0,4.8336,4.842,4.8458,4.8505,4.8528,4.8604,4.8648,4.8624,4.8672,4.8721,4.8784,4.8857,4.8913,4.9038,4.9042,4.9105,4.9083,4.9196,4.9092,4.9098,4.9081,4.9075,4.9082,4.9215,4.9219,4.9222,4.9224,0,4.8598,4.8591,4.8658,4.8724,4.8778,4.8828,4.8873,4.8914,4.8893,4.8949,4.9028,4.9072,4.9159,4.9231,4.9291,4.9307,4.9261,4.9258,4.9283,4.9291,4.9291,4.9289,4.8953,4.9249,4.9246,4.9244,4.9243,4.9242,4.8788,4.8859,4.8897,4.8972,4.9004,4.9048,4.9114,4.9122,4.9188,4.9258,4.924,4.9329,4.9363,4.9439,4.9463,4.953,4.9487,4.9525,4.9534,4.9543,4.9553,4.9284,4.9541,4.954,4.954,4.9539,4.9539,0,4.9044,4.9066,4.9136,4.9202,4.9261,4.9217,4.9264,4.9315,4.9395,4.9433,4.949,4.958,4.965,4.966,4.9726,4.9778,4.9759,4.9795,4.9789,4.9793,4.9589,4.9559,4.981,4.981,4.981,4.981,4.981,4.981,4.9185,4.9302,4.93,4.9433,4.9453,4.9541,4.9572,4.9611,4.964,4.9744,4.9802,4.981,4.9836,4.9903,4.9964,4.9965,4.999,5.0034,5.0027,4.9835,4.9808,4.9782,4.9753,5.0041,5.0041,5.0225,5.0227,5.0228]},{"header":{"parameterUnit":"m.s-1","parameterCategory":1,"la1":30.2991,"la2":30.254,"lo1":-89.0895,"lo2":-89.0444,"dy":0.0017,"dx":0.0017,"nx":28,"ny":28,"refTime":"2025-08-13T03:00:00:Z","depth":0,"parameterNumber":3,"parameterNumberName":"V-component_of_WINDS"},"data":[0,0,0,0,0,0,0,0,0,0,0,0,0,0,0,0,0,0,0,0,0,0,0,0,0,0,0,0,0,0,0,0,0,0,0,0,0,0,0,0,0,0,0,0,0,0,0,0,0,0,0,0,0,0,0,0,0,0,1.3363,1.3366,0,1.3615,1.3618,1.362,1.3665,1.3663,1.3661,1.3659,1.3933,1.3943,1.3952,0,0,0,0,0,0,0,0,0,0,0,0,0,1.2936,1.2944,1.3363,1.3366,1.3369,1.3614,1.3618,1.3621,1.3665,1.3663,1.366,1.3658,1.393,1.3941,1.3953,0,0,0,0,0,0,0,0,0,0,0,0,0,1.3148,1.2946,1.3363,1.342,1.3428,1.3613,1.3618,1.3622,1.3666,1.3663,1.3659,1.3656,1.3927,1.394,1.3954,1.4105,0,0,1.3997,1.4003,0,0,0,0,0,0,0,0,1.3136,1.3164,1.3409,1.3417,1.3426,1.3605,1.3568,1.3785,1.3667,1.3576,1.3659,1.3655,1.3828,1.385,1.3905,1.4118,1.4129,1.3998,1.4007,1.4013,1.4016,0,0,0,0,0,0,0,1.3121,1.3154,1.3463,1.3412,1.3423,1.3439,1.3465,1.3609,1.3718,1.3584,1.3588,1.3616,1.3832,1.3891,1.3911,1.4133,1.3998,1.401,1.4019,1.4024,1.4483,1.4487,0,0,0,0,0,0,1.3094,1.3141,1.3455,1.3471,1.3269,1.3449,1.3479,1.3551,1.3716,1.3738,1.3618,1.3617,1.3869,1.3895,1.3921,1.4108,1.4012,1.4026,1.4034,1.4479,1.4484,1.4488,0,0,0,0,0,0,1.3085,1.3122,1.3445,1.3307,1.3349,1.346,1.354,1.3558,1.3616,1.3742,1.3763,1.3658,1.3867,1.3902,1.4057,1.4119,1.4032,1.4045,1.4475,1.4481,1.4486,1.4484,0,0,0,0,0,0,1.3072,1.3118,1.3173,1.3307,1.3356,1.3573,1.3544,1.3565,1.3638,1.3639,1.3784,1.3806,1.3867,1.4036,1.4071,1.4136,1.4055,1.447,1.4477,1.4484,1.4479,1.4489,1.4497,0,0,0,0,0,1.3057,1.3166,1.3176,1.3213,1.3426,1.3576,1.3605,1.3668,1.3643,1.3701,1.3782,1.3801,1.4105,1.4052,1.4092,1.4162,1.4466,1.4475,1.4484,1.4475,1.4487,1.4497,0,0,0,0,0,0,1.3043,1.3185,1.3197,1.3352,1.3451,1.3583,1.3659,1.3679,1.3792,1.3788,1.3868,1.3901,1.4052,1.4123,1.4061,1.4316,1.4285,1.4302,1.4265,1.4277,1.4286,1.4267,1.4067,0,0,0,0,0,1.3057,1.3161,1.3282,1.3408,1.3455,1.3548,1.3616,1.3656,1.3764,1.3808,1.39,1.4008,1.4128,1.4206,1.4324,1.4488,1.4522,1.4556,1.4565,1.4572,1.4587,1.468,1.4697,1.4516,1.4516,1.4516,0,0,1.3089,1.3179,1.3242,1.3407,1.3488,1.3599,1.3584,1.3702,1.3786,1.3828,1.3979,1.405,1.4177,1.4337,1.4413,1.4401,1.4643,1.4583,1.4587,1.4599,1.469,1.4707,1.4722,1.4522,1.4521,1.452,0,0,1.3204,1.3281,1.3394,1.3474,1.3594,1.3655,1.3681,1.381,1.3857,1.4008,1.4041,1.4145,1.435,1.4439,1.4511,1.4655,1.4678,1.4692,1.4741,1.483,1.4844,1.4857,1.4911,1.4928,1.4706,1.4706,1.4706,0,1.3231,1.3393,1.3451,1.3566,1.3639,1.3674,1.3791,1.3868,1.4024,1.4075,1.4058,1.4314,1.4402,1.4584,1.4618,1.4675,1.4711,1.4677,1.4836,1.485,1.4864,1.4915,1.4935,1.4707,1.4707,1.4707,1.4706,0,1.342,1.3533,1.361,1.3751,1.3833,1.3949,1.4029,1.4105,1.4137,1.42,1.4355,1.4461,1.46,1.4646,1.4681,1.4833,1.4822,1.4819,1.479,1.488,1.4931,1.4951,1.4708,1.4708,1.4707,1.4707,0,0,1.3538,1.3705,1.3733,1.3797,1.3931,1.4022,1.414,1.427,1.4335,1.444,1.4544,1.4715,1.4712,1.4794,1.4839,1.4917,1.5026,1.4906,1.491,1.4926,1.5202,1.5204,1.5225,1.504,1.5044,1.5048,1.5192,0,1.3669,1.3875,1.3929,1.4107,1.4212,1.4246,1.4349,1.4445,1.4507,1.461,1.4681,1.4801,1.4788,1.4837,1.4915,1.4996,1.5083,1.4986,1.5143,1.5147,1.5111,1.5252,1.5255,1.5386,1.5211,1.5215,1.5217,0,1.3852,1.3953,1.4139,1.4257,1.4303,1.4395,1.4517,1.4613,1.4724,1.4764,1.4852,1.4889,1.5019,1.4979,1.516,1.5093,1.516,1.5209,1.5216,1.5235,1.5189,1.5277,1.5429,1.5449,1.5248,1.5246,1.5244,0,1.3919,1.4104,1.4238,1.4292,1.4433,1.4496,1.4559,1.4666,1.474,1.4849,1.4898,1.5023,1.5092,1.519,1.5261,1.5226,1.5437,1.5403,1.5477,1.5476,1.5523,1.552,1.569,1.5562,1.5562,1.5561,1.5561,0,1.4062,1.4175,1.427,1.4353,1.4481,1.4543,1.467,1.4736,1.4829,1.4929,1.4967,1.5061,1.5148,1.5256,1.5313,1.5455,1.5486,1.5525,1.5539,1.5523,1.5518,1.557,1.5564,1.5567,1.5566,1.5565,1.5564,0,1.4162,1.4229,1.4378,1.4496,1.4529,1.4618,1.4723,1.4807,1.4868,1.4994,1.5027,1.5126,1.5253,1.5332,1.5497,1.5535,1.5692,1.5702,1.5652,1.566,1.5729,1.5722,1.5942,1.5974,1.5822,1.5823,1.5825,0,1.4249,1.4336,1.4461,1.4527,1.4589,1.4696,1.477,1.4835,1.4912,1.5042,1.5111,1.5239,1.5345,1.5548,1.5638,1.5764,1.5779,1.5847,1.5799,1.5779,1.5783,1.5777,1.5787,1.5856,1.5857,1.5858,1.5859,0,1.4398,1.4426,1.4527,1.464,1.4725,1.482,1.4914,1.4967,1.505,1.5134,1.5261,1.5342,1.5506,1.5635,1.5767,1.5838,1.5865,1.5872,1.5897,1.5882,1.585,1.587,1.5676,1.5869,1.5868,1.5867,1.5866,1.5866,1.4496,1.4574,1.4673,1.4785,1.4861,1.4947,1.5031,1.51,1.5205,1.5339,1.5372,1.5506,1.5615,1.5795,1.5868,1.5977,1.5968,1.6003,1.6012,1.602,1.6022,1.5829,1.6001,1.6001,1.6001,1.6001,1.6001,0,1.4649,1.4712,1.4814,1.4941,1.503,1.5038,1.5142,1.5218,1.5332,1.5429,1.553,1.5677,1.58,1.5897,1.6026,1.6094,1.611,1.6126,1.6124,1.614,1.6022,1.5988,1.6111,1.6111,1.6111,1.6111,1.6111,1.6111,1.4738,1.487,1.4909,1.508,1.5146,1.5271,1.533,1.5411,1.5488,1.5647,1.5747,1.5807,1.5905,1.604,1.6155,1.6181,1.6228,1.6243,1.6271,1.616,1.6148,1.6137,1.6106,1.6251,1.6252,1.6381,1.6382,1.6383]}]]